| time (UTC) | temp C | wind direction | speed KPH | gust KPH | rain 1hr cm | rain 24hr cm | rain mn cm | humidity % | barometer mb |
| 20260506221547 | 8 | 21 | 1.6 | 4.8 | 0.00 | 1.65 | 1.65 | 97 | |
| 20260506220546 | 8 | 0 | 1.6 | 3.2 | 0.00 | 1.65 | 1.65 | 97 | |
| 20260506215526 | 8 | 346 | 1.6 | 3.2 | 0.03 | 1.65 | 1.65 | 96 | |
| 20260506214526 | 8 | 327 | 1.6 | 3.2 | 0.03 | 1.65 | 1.65 | 96 | |
| 20260506213546 | -17 | 0.0 | 0.0 | 0.03 | 1.65 | 1.65 | |||
| 20260506212948 | 8 | 270 | 3.2 | 3.2 | 0.03 | 1.65 | 1.65 | 96 | |
| 20260506210623 | 8 | 1.6 | 3.2 | 0.13 | 1.65 | 1.65 | 97 | ||
| 20260506205237 | 8 | 0.0 | 0.0 | 0.10 | 1.65 | 1.63 | 97 | ||
| 20260506194641 | -17 | 0 | 4.8 | 4.8 | 0.08 | 1.60 | 1.50 | ||
| 20260506192352 | 10 | 3.2 | 3.2 | 0.03 | 1.55 | 1.45 | 94 | ||
| 20260506190525 | 10 | 17 | 3.2 | 4.8 | 0.05 | 1.55 | 1.45 | 94 | |
| 20260506185525 | 10 | 12 | 4.8 | 6.4 | 0.15 | 1.55 | 1.45 | 94 | |
| 20260506184526 | 10 | 3 | 3.2 | 6.4 | 0.13 | 1.52 | 1.42 | 95 | |
| 20260506183525 | 11 | 324 | 4.8 | 8.0 | 0.38 | 1.52 | 1.42 | 95 | |
| 20260506182526 | 11 | 4.8 | 4.8 | 0.38 | 1.52 | 1.42 | 96 | ||
| 20260506181603 | 11 | 338 | 4.8 | 6.4 | 0.38 | 1.52 | 1.42 | 95 | |
| 20260506180218 | 11 | 4.8 | 4.8 | 0.25 | 1.40 | 1.30 | 96 | ||
| 20260506162525 | 13 | 0.0 | 0.0 | 0.18 | 1.09 | 0.99 | 96 | ||
| 20260506161546 | 13 | 0.0 | 0.0 | 0.15 | 1.04 | 0.94 | 96 | ||
| 20260506160603 | 13 | 0.0 | 0.0 | 0.13 | 0.99 | 0.89 | 96 | ||
| 20260506155141 | 13 | 0.0 | 0.0 | 0.18 | 0.99 | 0.89 | 95 | ||
| 20260506154026 | 12 | 0.0 | 0.0 | 0.18 | 0.97 | 0.86 | 95 | ||
| 20260506153140 | 12 | 0.0 | 0.0 | 0.15 | 0.91 | 0.81 | 95 | ||
| 20260506152122 | 12 | 0.0 | 3.2 | 0.15 | 0.91 | 0.81 | 95 | ||
| 20260506151104 | 12 | 0.0 | 0.0 | 0.15 | 0.86 | 0.76 | 95 | ||
| 20260506150025 | 12 | 0.0 | 0.0 | 0.15 | 0.84 | 0.74 | 94 | ||
| 20260506145026 | 12 | 0.0 | 0.0 | 0.15 | 0.81 | 0.71 | 94 | ||
| 20260506144025 | 12 | 0.0 | 0.0 | 0.15 | 0.79 | 0.69 | 95 | ||
| 20260506143025 | 12 | 0.0 | 0.0 | 0.13 | 0.76 | 0.66 | 95 | ||
| 20260506142026 | 12 | 0.0 | 0.0 | 0.15 | 0.76 | 0.66 | 95 | ||
| 20260506141025 | 12 | 0.0 | 0.0 | 0.10 | 0.74 | 0.61 | 95 | ||
| 20260506140046 | 12 | 0.0 | 0.0 | 0.13 | 0.71 | 0.58 | 97 | ||
| 20260506135025 | 12 | 0.0 | 0.0 | 0.13 | 0.69 | 0.56 | 97 | ||
| 20260506134025 | 12 | 0.0 | 0.0 | 0.13 | 0.66 | 0.53 | 97 | ||
| 20260506133046 | 12 | 0.0 | 0.0 | 0.13 | 0.66 | 0.53 | 97 | ||
| 20260506132025 | 12 | 0.0 | 0.0 | 0.10 | 0.64 | 0.51 | 98 | ||
| 20260506131026 | 12 | 0.0 | 0.0 | 0.10 | 0.64 | 0.51 | 99 | ||
| 20260506130025 | 12 | 0.0 | 0.0 | 0.05 | 0.58 | 0.46 | 99 | ||
| 20260506125026 | 12 | 0.0 | 1.6 | 0.05 | 0.56 | 0.43 | 99 | ||
| 20260506124025 | 12 | 0.0 | 0.0 | 0.03 | 0.53 | 0.41 | 99 | ||
| 20260506123025 | 12 | 0.0 | 0.0 | 0.03 | 0.53 | 0.41 | 99 | ||
| 20260506122026 | 12 | 158 | 0.0 | 3.2 | 0.03 | 0.53 | 0.41 | 99 | |
| 20260506121025 | 11 | 158 | 1.6 | 4.8 | 0.03 | 0.53 | 0.41 | 99 | |
| 20260506120025 | 11 | 0.0 | 0.0 | 0.03 | 0.53 | 0.41 | 99 | ||
| 20260506115026 | 11 | 0.0 | 0.0 | 0.00 | 0.51 | 0.38 | 99 | ||
| 20260506114025 | 11 | 0.0 | 0.0 | 0.00 | 0.51 | 0.38 | 99 | ||
| 20260506113026 | 11 | 0.0 | 0.0 | 0.00 | 0.51 | 0.38 | 99 | ||
| 20260506112025 | 11 | 0.0 | 0.0 | 0.00 | 0.51 | 0.38 | 99 | ||
| 20260506111025 | 11 | 0.0 | 0.0 | 0.00 | 0.51 | 0.38 | 99 | ||
| 20260506110026 | 11 | 0.0 | 0.0 | 0.00 | 0.51 | 0.38 | 99 | ||
| 20260506105025 | 11 | 0.0 | 0.0 | 0.00 | 0.51 | 0.38 | 99 | ||
| 20260506104026 | 11 | 0.0 | 0.0 | 0.00 | 0.51 | 0.38 | 99 | ||
| 20260506103025 | 11 | 0.0 | 0.0 | 0.00 | 0.51 | 0.38 | 99 | ||
| 20260506102025 | 11 | 0.0 | 0.0 | 0.00 | 0.51 | 0.38 | 99 | ||
| 20260506101045 | 11 | 0.0 | 0.0 | 0.00 | 0.51 | 0.38 | 99 | ||
| 20260506100046 | 11 | 0.0 | 0.0 | 0.00 | 0.51 | 0.38 | 98 | ||
| 20260506095026 | 11 | 0.0 | 0.0 | 0.00 | 0.51 | 0.38 | 98 | ||
| 20260506094045 | 11 | 0.0 | 0.0 | 0.00 | 0.51 | 0.38 | 98 | ||
| 20260506093026 | 11 | 0.0 | 0.0 | 0.00 | 0.51 | 0.38 | 99 | ||
| 20260506092025 | 11 | 0.0 | 0.0 | 0.00 | 0.51 | 0.38 | 99 | ||
| 20260506091025 | 11 | 0.0 | 0.0 | 0.00 | 0.51 | 0.38 | 99 | ||
| 20260506090046 | 11 | 0.0 | 0.0 | 0.00 | 0.51 | 0.38 | 99 | ||
| 20260506085025 | 11 | 0.0 | 0.0 | 0.00 | 0.51 | 0.38 | 98 | ||
| 20260506084046 | 11 | 0.0 | 0.0 | 0.00 | 0.51 | 0.38 | 98 | ||
| 20260506083045 | 11 | 0.0 | 0.0 | 0.00 | 0.51 | 0.38 | 98 | ||
| 20260506082026 | 11 | 0.0 | 0.0 | 0.00 | 0.51 | 0.38 | 98 | ||
| 20260506081026 | 12 | 0.0 | 0.0 | 0.00 | 0.51 | 0.38 | 98 | ||
| 20260506073026 | 12 | 0.0 | 0.0 | 0.00 | 0.51 | 0.38 | 98 | ||
| 20260506072026 | 12 | 0.0 | 0.0 | 0.00 | 0.51 | 0.38 | 98 | ||
| 20260506071025 | 12 | 0.0 | 0.0 | 0.00 | 0.51 | 0.38 | 98 | ||
| 20260506062046 | 12 | 0.0 | 0.0 | 0.10 | 0.51 | 0.38 | 98 | ||
| 20260506061046 | 12 | 0.0 | 0.0 | 0.28 | 0.51 | 0.38 | 97 | ||
| 20260506051025 | 12 | 0.0 | 0.0 | 0.10 | 0.23 | 0.10 | 97 | ||
| 20260506045046 | 12 | 0.0 | 0.0 | 0.08 | 0.20 | 0.08 | 96 | ||
| 20260506044046 | 12 | 0.0 | 0.0 | 0.08 | 0.20 | 0.08 | 96 | ||
| 20260506043025 | 12 | 0.0 | 0.0 | 0.05 | 0.18 | 0.05 | 96 | ||
| 20260506042025 | 13 | 0.0 | 0.0 | 0.00 | 0.13 | 0.00 | 95 | ||
| 20260506041106 | 13 | 0.0 | 0.0 | 0.00 | 0.13 | 0.00 | 94 | ||
| 20260506040026 | 13 | 0.0 | 0.0 | 0.00 | 0.13 | 0.00 | 94 | ||
| 20260506035025 | 13 | 0.0 | 0.0 | 0.00 | 0.13 | 0.13 | 94 | ||
| 20260506034046 | 13 | 0.0 | 0.0 | 0.00 | 0.13 | 0.13 | 93 | ||
| 20260506033026 | 13 | 0.0 | 0.0 | 0.00 | 0.13 | 0.13 | 93 | ||
| 20260506032026 | 13 | 0.0 | 0.0 | 0.00 | 0.13 | 0.13 | 92 | ||
| 20260506031026 | 13 | 0.0 | 0.0 | 0.00 | 0.13 | 0.13 | 92 | ||
| 20260506030046 | 13 | 0.0 | 0.0 | 0.00 | 0.13 | 0.13 | 93 | ||
| 20260506025026 | 13 | 0.0 | 0.0 | 0.00 | 0.13 | 0.13 | 92 | ||
| 20260506024025 | 13 | 0.0 | 0.0 | 0.00 | 0.13 | 0.13 | 92 | ||
| 20260506023026 | 13 | 0.0 | 0.0 | 0.00 | 0.13 | 0.13 | 92 | ||
| 20260506022026 | 13 | 0.0 | 0.0 | 0.00 | 0.13 | 0.13 | 92 | ||
| 20260506021026 | 13 | 0.0 | 0.0 | 0.00 | 0.13 | 0.13 | 91 | ||
| 20260506020026 | 13 | 0.0 | 0.0 | 0.00 | 0.13 | 0.13 | 91 | ||
| 20260506015025 | 13 | 0.0 | 0.0 | 0.00 | 0.13 | 0.13 | 90 | ||
| 20260506014025 | 13 | 0.0 | 0.0 | 0.00 | 0.13 | 0.13 | 90 | ||
| 20260506013026 | 14 | 0.0 | 0.0 | 0.00 | 0.13 | 0.13 | 88 | ||
| 20260506012026 | 15 | 0.0 | 0.0 | 0.00 | 0.13 | 0.13 | 86 | ||
| 20260506011026 | 15 | 0.0 | 0.0 | 0.00 | 0.13 | 0.13 | 85 | ||
| 20260506010025 | 15 | 0.0 | 1.6 | 0.00 | 9.65 | 0.13 | 84 | ||
| 20260506005026 | 15 | 158 | 1.6 | 3.2 | 0.00 | 9.65 | 0.13 | 84 | |
| 20260506004026 | 16 | 0.0 | 0.0 | 0.00 | 9.65 | 0.13 | 79 | ||
| 20260506003026 | 16 | 0.0 | 0.0 | 0.00 | 9.65 | 0.13 | 82 | ||
| 20260506002123 | 16 | 158 | 1.6 | 3.2 | 0.00 | 9.65 | 0.13 | 82 | |
| 20260506001025 | 17 | 0.0 | 0.0 | 0.00 | 9.65 | 0.13 | 77 | ||
| 20260506000026 | 17 | 0.0 | 0.0 | 0.00 | 9.65 | 0.13 | 78 | ||
| 20260505235026 | 17 | 0.0 | 0.0 | 0.00 | 9.65 | 0.13 | 72 | ||
| 20260505234026 | 17 | 158 | 0.0 | 3.2 | 0.00 | 9.65 | 0.13 | 71 | |
| 20260505233044 | 18 | 158 | 3.2 | 6.4 | 0.00 | 9.65 | 0.13 | 67 | |
| 20260505232026 | 18 | 0.0 | 1.6 | 0.00 | 9.65 | 0.13 | 61 | ||
| 20260505231045 | 18 | 158 | 1.6 | 3.2 | 0.00 | 9.65 | 0.13 | 61 | |
| 20260505230025 | -17 | 158 | 0.0 | 3.2 | 0.00 | 9.65 | 0.13 | ||
| 20260505225507 | 18 | 213 | 4.8 | 9.7 | 0.00 | 9.65 | 0.13 | 60 | |
| 20260505224046 | -17 | 270 | 3.2 | 4.8 | 0.00 | 9.65 | 0.13 | ||
| 20260505223122 | 18 | 274 | 4.8 | 8.0 | 0.00 | 9.65 | 0.13 | 63 |